Time,TemperatureF,DewpointF,PressureIn,WindDirection,WindDirectionDegrees,WindSpeedMPH,WindSpeedGustMPH,Humidity,HourlyPrecipIn,Conditions,Clouds,dailyrainin,SoftwareType,DateUTC
2013-01-23 00:00:00,9.2,-6.5,30.17,SSW,210,1.0,22.0,48,0.00,,SKC,0.00,VWS V14.01,2013-01-23 05:00:00,
2013-01-23 00:05:00,9.2,-6.9,30.17,West,260,6.0,17.0,47,0.00,,SKC,0.00,VWS V14.01,2013-01-23 05:05:00,
2013-01-23 00:08:00,9.2,-6.5,30.17,SW,225,0.0,17.0,48,0.00,,SKC,0.00,VWS V14.01,2013-01-23 05:08:00,
2013-01-23 00:14:00,9.2,-6.9,30.17,SW,221,3.0,17.0,47,0.00,,SKC,0.00,VWS V14.01,2013-01-23 05:14:00,
2013-01-23 00:15:00,9.2,-6.9,30.17,West,269,0.0,17.0,47,0.00,,SKC,0.00,VWS V14.01,2013-01-23 05:15:00,
2013-01-23 00:20:00,9.2,-6.5,30.17,SW,214,5.0,14.0,48,0.00,,SKC,0.00,VWS V14.01,2013-01-23 05:20:00,
2013-01-23 00:26:00,9.2,-6.9,30.17,West,270,4.0,21.0,47,0.00,,SKC,0.00,VWS V14.01,2013-01-23 05:26:00,
2013-01-23 00:30:00,9.2,-6.9,30.17,South,183,2.0,21.0,47,0.00,,SKC,0.00,VWS V14.01,2013-01-23 05:30:00,
2013-01-23 00:32:00,9.2,-6.9,30.17,WNW,298,1.0,9.0,47,0.00,,SKC,0.00,VWS V14.01,2013-01-23 05:32:00,
2013-01-23 00:38:00,9.2,-6.9,30.17,SSE,164,9.0,18.0,47,0.00,,SKC,0.00,VWS V14.01,2013-01-23 05:38:00,
2013-01-23 00:44:00,9.2,-6.9,30.17,South,174,4.0,18.0,47,0.00,,SKC,0.00,VWS V14.01,2013-01-23 05:44:00,
2013-01-23 00:45:00,9.2,-6.9,30.17,SSW,194,2.0,18.0,47,0.00,,SKC,0.00,VWS V14.01,2013-01-23 05:45:00,
2013-01-23 00:50:00,9.2,-6.9,30.17,SSW,206,2.0,11.0,47,0.00,,SKC,0.00,VWS V14.01,2013-01-23 05:50:00,
2013-01-23 00:57:00,9.2,-6.9,30.17,NNW,340,3.0,19.0,47,0.00,,SKC,0.00,VWS V14.01,2013-01-23 05:57:00,
2013-01-23 01:00:00,9.2,-6.9,30.17,South,176,10.0,19.0,47,0.00,,SKC,0.00,VWS V14.01,2013-01-23 06:00:00,
2013-01-23 01:03:00,9.2,-6.9,30.17,SSW,204,3.0,17.0,47,0.00,,SKC,0.00,VWS V14.01,2013-01-23 06:03:00,
2013-01-23 01:09:00,9.2,-6.9,30.17,South,188,3.0,22.0,47,0.00,,SKC,0.00,VWS V14.01,2013-01-23 06:09:00,
2013-01-23 01:15:00,9.2,-6.5,30.17,South,185,6.0,22.0,48,0.00,,SKC,0.00,VWS V14.01,2013-01-23 06:15:00,
2013-01-23 01:21:00,9.2,-6.5,30.17,SW,226,1.0,28.0,48,0.00,,SKC,0.00,VWS V14.01,2013-01-23 06:21:00,
2013-01-23 01:27:00,9.2,-6.5,30.17,SSW,213,6.0,28.0,48,0.00,,SKC,0.00,VWS V14.01,2013-01-23 06:27:00,
2013-01-23 01:30:00,9.2,-6.5,30.16,WSW,245,9.0,28.0,48,0.00,,SKC,0.00,VWS V14.01,2013-01-23 06:30:00,
2013-01-23 01:33:00,9.2,-6.5,30.16,SE,129,4.0,18.0,48,0.00,,SKC,0.00,VWS V14.01,2013-01-23 06:33:00,
2013-01-23 01:39:00,9.2,-6.5,30.16,WNW,288,3.0,34.0,48,0.00,,SKC,0.00,VWS V14.01,2013-01-23 06:39:00,
2013-01-23 01:45:00,9.2,-6.5,30.17,West,264,20.0,34.0,48,0.00,,SKC,0.00,VWS V14.01,2013-01-23 06:45:00,
2013-01-23 01:54:00,9.2,-6.5,30.17,WSW,244,11.0,29.0,48,0.00,,SKC,0.00,VWS V14.01,2013-01-23 06:54:00,
2013-01-23 02:00:00,9.2,-6.5,30.17,SW,218,7.0,29.0,48,0.00,,SKC,0.00,VWS V14.01,2013-01-23 07:00:00,
2013-01-23 02:06:00,9.2,-6.5,30.17,West,266,4.0,18.0,48,0.00,,SKC,0.00,VWS V14.01,2013-01-23 07:06:00,
2013-01-23 02:12:00,9.2,-6.5,30.17,WSW,246,15.0,19.0,48,0.00,,SKC,0.00,VWS V14.01,2013-01-23 07:12:00,
2013-01-23 02:15:00,9.2,-6.5,30.18,West,265,22.0,22.0,48,0.00,,SKC,0.00,VWS V14.01,2013-01-23 07:15:00,
2013-01-23 02:18:00,9.2,-6.5,30.18,SW,219,11.0,22.0,48,0.00,,SKC,0.00,VWS V14.01,2013-01-23 07:18:00,
2013-01-23 02:24:00,9.2,-6.5,30.18,SSW,198,14.0,26.0,48,0.00,,SKC,0.00,VWS V14.01,2013-01-23 07:24:00,
2013-01-23 02:30:00,9.2,-6.5,30.18,SW,218,0.0,26.0,48,0.00,,SKC,0.00,VWS V14.01,2013-01-23 07:30:00,
2013-01-23 02:36:00,9.0,-6.7,30.18,South,191,4.0,21.0,48,0.00,,SKC,0.00,VWS V14.01,2013-01-23 07:36:00,
2013-01-23 02:42:00,9.0,-6.7,30.18,SSE,152,5.0,21.0,48,0.00,,SKC,0.00,VWS V14.01,2013-01-23 07:42:00,
2013-01-23 02:45:00,8.8,-6.9,30.18,SSW,201,4.0,21.0,48,0.00,,SKC,0.00,VWS V14.01,2013-01-23 07:45:00,
2013-01-23 02:48:00,8.8,-6.9,30.18,NW,309,1.0,7.0,48,0.00,,SKC,0.00,VWS V14.01,2013-01-23 07:48:00,
2013-01-23 02:55:00,8.8,-6.9,30.18,SSW,197,0.0,28.0,48,0.00,,SKC,0.00,VWS V14.01,2013-01-23 07:55:00,
2013-01-23 03:00:00,8.8,-6.9,30.18,SW,214,3.0,28.0,48,0.00,,SKC,0.00,VWS V14.01,2013-01-23 08:00:00,
2013-01-23 03:07:00,8.8,-6.9,30.18,SE,146,1.0,16.0,48,0.00,,SKC,0.00,VWS V14.01,2013-01-23 08:07:00,
2013-01-23 03:13:00,8.6,-6.6,30.18,SW,218,0.0,16.0,49,0.00,,SKC,0.00,VWS V14.01,2013-01-23 08:13:00,
2013-01-23 03:15:00,8.6,-6.6,30.17,SSW,192,3.0,16.0,49,0.00,,SKC,0.00,VWS V14.01,2013-01-23 08:15:00,
2013-01-23 03:19:00,8.6,-6.6,30.17,SSW,205,3.0,11.0,49,0.00,,SKC,0.00,VWS V14.01,2013-01-23 08:19:00,
2013-01-23 03:25:00,8.4,-6.0,30.17,WSW,237,0.0,11.0,51,0.00,,SKC,0.00,VWS V14.01,2013-01-23 08:25:00,
2013-01-23 03:30:00,8.4,-6.4,30.18,ESE,110,0.0,11.0,50,0.00,,SKC,0.00,VWS V14.01,2013-01-23 08:30:00,
2013-01-23 03:37:00,8.4,-6.4,30.18,West,264,4.0,11.0,50,0.00,,SKC,0.00,VWS V14.01,2013-01-23 08:37:00,
2013-01-23 03:43:00,8.3,-6.1,30.18,NW,319,7.0,12.0,51,0.00,,SKC,0.00,VWS V14.01,2013-01-23 08:43:00,
2013-01-23 03:45:00,8.3,-6.1,30.18,NW,318,0.0,12.0,51,0.00,,SKC,0.00,VWS V14.01,2013-01-23 08:45:00,
2013-01-23 03:49:00,8.1,-5.9,30.18,SW,226,3.0,7.0,52,0.00,,SKC,0.00,VWS V14.01,2013-01-23 08:49:00,
2013-01-23 03:55:00,8.1,-5.9,30.18,SSW,196,2.0,11.0,52,0.00,,SKC,0.00,VWS V14.01,2013-01-23 08:55:00,
2013-01-23 04:00:00,7.9,-6.1,30.17,SW,236,0.0,17.0,52,0.00,,SKC,0.00,VWS V14.01,2013-01-23 09:00:00,
2013-01-23 04:07:00,8.1,-5.9,30.17,SSW,208,5.0,18.0,52,0.00,,SKC,0.00,VWS V14.01,2013-01-23 09:07:00,
2013-01-23 04:13:00,8.1,-5.9,30.17,South,179,11.0,21.0,52,0.00,,SKC,0.00,VWS V14.01,2013-01-23 09:13:00,
2013-01-23 04:15:00,8.1,-5.9,30.17,SSW,210,0.0,21.0,52,0.00,,SKC,0.00,VWS V14.01,2013-01-23 09:15:00,
2013-01-23 04:19:00,8.1,-5.9,30.17,South,177,3.0,23.0,52,0.00,,SKC,0.00,VWS V14.01,2013-01-23 09:19:00,
2013-01-23 04:25:00,8.1,-5.9,30.17,SW,219,5.0,23.0,52,0.00,,SKC,0.00,VWS V14.01,2013-01-23 09:25:00,
2013-01-23 04:30:00,8.1,-5.9,30.17,WSW,250,5.0,23.0,52,0.00,,SKC,0.00,VWS V14.01,2013-01-23 09:30:00,
2013-01-23 04:34:00,8.1,-5.9,30.17,West,269,5.0,13.0,52,0.00,,SKC,0.00,VWS V14.01,2013-01-23 09:34:00,
2013-01-23 04:40:00,8.1,-5.9,30.17,SW,226,3.0,16.0,52,0.00,,SKC,0.00,VWS V14.01,2013-01-23 09:40:00,
2013-01-23 04:45:00,8.1,-5.9,30.16,SSE,165,2.0,20.0,52,0.00,,SKC,0.00,VWS V14.01,2013-01-23 09:45:00,
2013-01-23 04:46:00,8.1,-5.9,30.16,SSW,210,3.0,5.0,52,0.00,,SKC,0.00,VWS V14.01,2013-01-23 09:46:00,
2013-01-23 04:53:00,7.9,-5.7,30.16,West,259,4.0,13.0,53,0.00,,SKC,0.00,VWS V14.01,2013-01-23 09:53:00,
2013-01-23 04:59:00,7.9,-5.7,30.16,SW,218,4.0,18.0,53,0.00,,SKC,0.00,VWS V14.01,2013-01-23 09:59:00,
2013-01-23 05:00:00,7.9,-5.3,30.17,SE,126,4.0,18.0,54,0.00,,SKC,0.00,VWS V14.01,2013-01-23 10:00:00,
2013-01-23 05:05:00,7.9,-5.7,30.17,SSW,195,1.0,12.0,53,0.00,,SKC,0.00,VWS V14.01,2013-01-23 10:05:00,
2013-01-23 05:11:00,7.9,-5.7,30.17,SE,129,14.0,17.0,53,0.00,,SKC,0.00,VWS V14.01,2013-01-23 10:11:00,
2013-01-23 05:15:00,7.9,-5.7,30.18,South,177,9.0,19.0,53,0.00,,SKC,0.00,VWS V14.01,2013-01-23 10:15:00,
2013-01-23 05:17:00,7.9,-5.7,30.18,South,178,5.0,11.0,53,0.00,,SKC,0.00,VWS V14.01,2013-01-23 10:17:00,
2013-01-23 05:23:00,7.9,-5.7,30.18,SE,143,16.0,19.0,53,0.00,,SKC,0.00,VWS V14.01,2013-01-23 10:23:00,
2013-01-23 05:29:00,7.9,-5.7,30.18,SSW,205,5.0,19.0,53,0.00,,SKC,0.00,VWS V14.01,2013-01-23 10:29:00,
2013-01-23 05:30:00,7.7,-5.9,30.18,South,172,3.0,19.0,53,0.00,,SKC,0.00,VWS V14.01,2013-01-23 10:30:00,
2013-01-23 05:35:00,7.7,-5.9,30.18,South,187,16.0,24.0,53,0.00,,SKC,0.00,VWS V14.01,2013-01-23 10:35:00,
2013-01-23 05:44:00,7.7,-5.9,30.18,SSW,207,0.0,25.0,53,0.00,,SKC,0.00,VWS V14.01,2013-01-23 10:44:00,
2013-01-23 05:45:00,7.7,-5.9,30.19,South,170,5.0,25.0,53,0.00,,SKC,0.00,VWS V14.01,2013-01-23 10:45:00,
2013-01-23 05:50:00,7.7,-5.9,30.19,West,261,8.0,31.0,53,0.00,,SKC,0.00,VWS V14.01,2013-01-23 10:50:00,
2013-01-23 05:56:00,7.7,-5.5,30.19,WNW,301,3.0,31.0,54,0.00,,SKC,0.00,VWS V14.01,2013-01-23 10:56:00,
2013-01-23 06:00:00,7.7,-5.9,30.20,SSW,201,6.0,31.0,53,0.00,,SKC,0.00,VWS V14.01,2013-01-23 11:00:00,
2013-01-23 06:02:00,7.7,-5.9,30.20,SSW,209,3.0,14.0,53,0.00,,SKC,0.00,VWS V14.01,2013-01-23 11:02:00,
2013-01-23 06:08:00,7.6,-5.6,30.20,SW,235,7.0,23.0,54,0.00,,SKC,0.00,VWS V14.01,2013-01-23 11:08:00,
2013-01-23 06:14:00,7.6,-5.6,30.20,SSW,195,0.0,23.0,54,0.00,,SKC,0.00,VWS V14.01,2013-01-23 11:14:00,
2013-01-23 06:15:00,7.6,-5.6,30.20,SSW,195,3.0,23.0,54,0.00,,SKC,0.00,VWS V14.01,2013-01-23 11:15:00,
2013-01-23 06:20:00,7.4,-5.8,30.20,SSW,205,4.0,23.0,54,0.00,,SKC,0.00,VWS V14.01,2013-01-23 11:20:00,
2013-01-23 06:27:00,7.4,-5.8,30.20,NW,318,13.0,23.0,54,0.00,,SKC,0.00,VWS V14.01,2013-01-23 11:27:00,
2013-01-23 06:30:00,7.4,-5.8,30.21,West,266,6.0,23.0,54,0.00,,SKC,0.00,VWS V14.01,2013-01-23 11:30:00,
2013-01-23 06:33:00,7.4,-5.8,30.21,WSW,242,0.0,13.0,54,0.00,,SKC,0.00,VWS V14.01,2013-01-23 11:33:00,
2013-01-23 06:39:00,7.4,-5.4,30.21,SSW,211,0.0,17.0,55,0.00,,SKC,0.00,VWS V14.01,2013-01-23 11:39:00,
2013-01-23 06:45:00,7.2,-5.6,30.20,WSW,240,6.0,17.0,55,0.00,,SKC,0.00,VWS V14.01,2013-01-23 11:45:00,
2013-01-23 06:51:00,7.2,-5.6,30.20,SSW,196,3.0,18.0,55,0.00,,SKC,0.00,VWS V14.01,2013-01-23 11:51:00,
2013-01-23 06:57:00,7.2,-5.6,30.20,WSW,248,2.0,18.0,55,0.00,,SKC,0.00,VWS V14.01,2013-01-23 11:57:00,
2013-01-23 07:00:00,7.2,-5.6,30.21,SSE,167,10.0,18.0,55,0.00,,SKC,0.00,VWS V14.01,2013-01-23 12:00:00,
2013-01-23 07:03:00,7.2,-5.6,30.21,SSW,211,4.0,11.0,55,0.00,,SKC,0.00,VWS V14.01,2013-01-23 12:03:00,
2013-01-23 07:09:00,7.2,-5.6,30.21,South,176,10.0,26.0,55,0.00,,SKC,0.00,VWS V14.01,2013-01-23 12:09:00,
2013-01-23 07:15:00,7.2,-5.6,30.23,West,266,14.0,26.0,55,0.00,,SKC,0.00,VWS V14.01,2013-01-23 12:15:00,
2013-01-23 07:21:00,7.2,-5.6,30.23,West,259,0.0,14.0,55,0.00,,SKC,0.00,VWS V14.01,2013-01-23 12:21:00,
2013-01-23 07:27:00,7.2,-5.6,30.23,WSW,246,7.0,14.0,55,0.00,,SKC,0.00,VWS V14.01,2013-01-23 12:27:00,
2013-01-23 07:30:00,7.2,-5.2,30.23,SSE,163,0.0,14.0,56,0.00,,SKC,0.00,VWS V14.01,2013-01-23 12:30:00,
2013-01-23 07:33:00,7.2,-5.6,30.23,West,266,2.0,17.0,55,0.00,,SKC,0.00,VWS V14.01,2013-01-23 12:33:00,
2013-01-23 07:39:00,7.2,-5.2,30.23,SSE,158,2.0,17.0,56,0.00,,SKC,0.00,VWS V14.01,2013-01-23 12:39:00,
2013-01-23 07:45:00,7.2,-5.2,30.24,SW,215,2.0,17.0,56,0.00,,SKC,0.00,VWS V14.01,2013-01-23 12:45:00,
2013-01-23 07:51:00,7.2,-5.6,30.24,SW,234,7.0,23.0,55,0.00,,SKC,0.00,VWS V14.01,2013-01-23 12:51:00,
2013-01-23 07:57:00,7.4,-5.4,30.24,SW,221,4.0,23.0,55,0.00,,SKC,0.00,VWS V14.01,2013-01-23 12:57:00,
2013-01-23 08:00:00,7.4,-5.4,30.23,WSW,248,4.0,23.0,55,0.00,,SKC,0.00,VWS V14.01,2013-01-23 13:00:00,
2013-01-23 08:04:00,7.4,-5.4,30.23,SW,219,7.0,23.0,55,0.00,,SKC,0.00,VWS V14.01,2013-01-23 13:04:00,
2013-01-23 08:10:00,7.4,-5.4,30.23,SSW,211,3.0,23.0,55,0.00,,SKC,0.00,VWS V14.01,2013-01-23 13:10:00,
2013-01-23 08:15:00,7.4,-5.0,30.24,SE,137,6.0,23.0,56,0.00,,SKC,0.00,VWS V14.01,2013-01-23 13:15:00,
2013-01-23 08:22:00,7.6,-4.8,30.24,SSW,205,1.0,15.0,56,0.00,,SKC,0.00,VWS V14.01,2013-01-23 13:22:00,
2013-01-23 08:28:00,7.6,-5.2,30.24,SW,233,3.0,22.0,55,0.00,,SKC,0.00,VWS V14.01,2013-01-23 13:28:00,
2013-01-23 08:30:00,7.4,-5.0,30.23,SSW,203,2.0,22.0,56,0.00,,SKC,0.00,VWS V14.01,2013-01-23 13:30:00,
2013-01-23 08:34:00,7.4,-5.0,30.23,SSW,207,3.0,11.0,56,0.00,,SKC,0.00,VWS V14.01,2013-01-23 13:34:00,
2013-01-23 08:40:00,7.6,-4.8,30.23,SW,219,1.0,15.0,56,0.00,,SKC,0.00,VWS V14.01,2013-01-23 13:40:00,
2013-01-23 08:45:00,7.6,-4.8,30.24,SW,234,7.0,15.0,56,0.00,,SKC,0.00,VWS V14.01,2013-01-23 13:45:00,
2013-01-23 08:52:00,7.7,-5.1,30.24,SE,145,5.0,22.0,55,0.00,,SKC,0.00,VWS V14.01,2013-01-23 13:52:00,
2013-01-23 08:58:00,8.3,-4.5,30.24,SSE,153,0.0,22.0,55,0.00,,SKC,0.00,VWS V14.01,2013-01-23 13:58:00,
2013-01-23 09:00:00,8.4,-4.8,30.25,SSW,205,16.0,26.0,54,0.00,,SKC,0.00,VWS V14.01,2013-01-23 14:00:00,
2013-01-23 09:04:00,8.4,-4.8,30.25,SW,222,3.0,23.0,54,0.00,,SKC,0.00,VWS V14.01,2013-01-23 14:04:00,
2013-01-23 09:10:00,8.8,-4.4,30.25,SW,233,5.0,23.0,54,0.00,,SKC,0.00,VWS V14.01,2013-01-23 14:10:00,
2013-01-23 09:15:00,8.8,-4.8,30.25,SW,224,0.0,23.0,53,0.00,,SKC,0.00,VWS V14.01,2013-01-23 14:15:00,
2013-01-23 09:22:00,9.0,-4.6,30.25,SSW,193,11.0,16.0,53,0.00,,SKC,0.00,VWS V14.01,2013-01-23 14:22:00,
2013-01-23 09:28:00,9.2,-4.4,30.25,South,191,21.0,25.0,53,0.00,,SKC,0.00,VWS V14.01,2013-01-23 14:28:00,
2013-01-23 09:30:00,9.3,-4.8,30.25,SSE,162,2.0,25.0,52,0.00,,SKC,0.00,VWS V14.01,2013-01-23 14:30:00,
2013-01-23 09:34:00,9.7,-4.4,30.25,NNW,336,0.0,11.0,52,0.00,,SKC,0.00,VWS V14.01,2013-01-23 14:34:00,
2013-01-23 09:40:00,10.0,-4.9,30.25,SW,214,0.0,16.0,50,0.00,,SKC,0.00,VWS V14.01,2013-01-23 14:40:00,
2013-01-23 09:45:00,10.7,-4.3,30.25,West,267,0.0,17.0,50,0.00,,SKC,0.00,VWS V14.01,2013-01-23 14:45:00,
2013-01-23 09:52:00,11.2,-5.1,30.25,East,100,13.0,13.0,47,0.00,,SKC,0.00,VWS V14.01,2013-01-23 14:52:00,
2013-01-23 09:58:00,11.6,-5.2,30.25,WSW,241,5.0,19.0,46,0.00,,SKC,0.00,VWS V14.01,2013-01-23 14:58:00,
2013-01-23 10:00:00,11.7,-5.5,30.25,SW,233,6.0,19.0,45,0.00,,SKC,0.00,VWS V14.01,2013-01-23 15:00:00,
2013-01-23 10:04:00,11.9,-5.3,30.25,WSW,239,3.0,19.0,45,0.00,,SKC,0.00,VWS V14.01,2013-01-23 15:04:00,
2013-01-23 10:10:00,12.1,-5.6,30.25,SSW,207,8.0,24.0,44,0.00,,SKC,0.00,VWS V14.01,2013-01-23 15:10:00,
2013-01-23 10:15:00,12.1,-6.1,30.25,SE,144,11.0,24.0,43,0.00,,SKC,0.00,VWS V14.01,2013-01-23 15:15:00,
2013-01-23 10:22:00,12.6,-5.6,30.25,SSW,200,0.0,18.0,43,0.00,,SKC,0.00,VWS V14.01,2013-01-23 15:22:00,
2013-01-23 10:28:00,13.1,-6.2,30.25,SSW,200,9.0,18.0,41,0.00,,SKC,0.00,VWS V14.01,2013-01-23 15:28:00,
2013-01-23 10:30:00,13.1,-6.7,30.25,SSW,200,1.0,18.0,40,0.00,,SKC,0.00,VWS V14.01,2013-01-23 15:30:00,
2013-01-23 10:34:00,13.3,-6.5,30.25,SSE,162,4.0,20.0,40,0.00,,SKC,0.00,VWS V14.01,2013-01-23 15:34:00,
2013-01-23 10:40:00,13.8,-5.5,30.25,SE,129,7.0,20.0,41,0.00,,SKC,0.00,VWS V14.01,2013-01-23 15:40:00,
2013-01-23 10:45:00,14.0,-6.9,30.25,South,188,0.0,20.0,38,0.00,,SKC,0.00,VWS V14.01,2013-01-23 15:45:00,
2013-01-23 10:46:00,14.0,-6.9,30.25,South,184,13.0,16.0,38,0.00,,SKC,0.00,VWS V14.01,2013-01-23 15:46:00,
2013-01-23 10:52:00,14.3,-7.8,30.25,South,169,14.0,29.0,36,0.00,,SKC,0.00,VWS V14.01,2013-01-23 15:52:00,
2013-01-23 10:58:00,14.3,-8.3,30.25,SSW,202,14.0,29.0,35,0.00,,SKC,0.00,VWS V14.01,2013-01-23 15:58:00,
2013-01-23 11:00:00,14.3,-8.3,30.25,SSW,205,5.0,29.0,35,0.00,,SKC,0.00,VWS V14.01,2013-01-23 16:00:00,
2013-01-23 11:04:00,14.6,-8.1,30.25,SW,217,12.0,17.0,35,0.00,,SKC,0.00,VWS V14.01,2013-01-23 16:04:00,
2013-01-23 11:10:00,14.9,-9.0,30.25,SSW,198,7.0,26.0,33,0.00,,SKC,0.00,VWS V14.01,2013-01-23 16:10:00,
2013-01-23 11:15:00,15.1,-8.2,30.24,SSW,207,12.0,26.0,34,0.00,,SKC,0.00,VWS V14.01,2013-01-23 16:15:00,
2013-01-23 11:16:00,14.9,-9.0,30.24,SSW,210,2.0,22.0,33,0.00,,SKC,0.00,VWS V14.01,2013-01-23 16:16:00,
2013-01-23 11:22:00,15.6,-8.4,30.24,SW,221,9.0,22.0,33,0.00,,SKC,0.00,VWS V14.01,2013-01-23 16:22:00,
2013-01-23 11:29:00,16.1,-9.2,30.24,South,188,11.0,22.0,31,0.00,,SKC,0.00,VWS V14.01,2013-01-23 16:29:00,
2013-01-23 11:30:00,16.2,-8.5,30.23,South,187,4.0,22.0,32,0.00,,SKC,0.00,VWS V14.01,2013-01-23 16:30:00,
2013-01-23 11:35:00,16.4,-8.3,30.23,SSW,212,3.0,22.0,32,0.00,,SKC,0.00,VWS V14.01,2013-01-23 16:35:00,
2013-01-23 11:41:00,16.7,-8.0,30.23,NW,311,4.0,22.0,32,0.00,,SKC,0.00,VWS V14.01,2013-01-23 16:41:00,
2013-01-23 11:45:00,16.9,-9.2,30.21,SW,232,4.0,26.0,30,0.00,,SKC,0.00,VWS V14.01,2013-01-23 16:45:00,
2013-01-23 11:47:00,16.9,-9.2,30.21,South,190,10.0,11.0,30,0.00,,SKC,0.00,VWS V14.01,2013-01-23 16:47:00,
2013-01-23 11:53:00,17.7,-7.8,30.21,SW,226,12.0,16.0,31,0.00,,SKC,0.00,VWS V14.01,2013-01-23 16:53:00,
2013-01-23 11:59:00,17.5,-8.6,30.21,South,181,9.0,17.0,30,0.00,,SKC,0.00,VWS V14.01,2013-01-23 16:59:00,
2013-01-23 12:00:00,17.7,-8.5,30.20,SW,219,0.0,17.0,30,0.00,,SKC,0.00,VWS V14.01,2013-01-23 17:00:00,
2013-01-23 12:05:00,18.1,-8.1,30.20,WSW,249,10.0,10.0,30,0.00,,SKC,0.00,VWS V14.01,2013-01-23 17:05:00,
2013-01-23 12:11:00,18.1,-7.4,30.20,East,98,9.0,15.0,31,0.00,,SKC,0.00,VWS V14.01,2013-01-23 17:11:00,
2013-01-23 12:15:00,18.0,-7.5,30.19,SSW,208,16.0,27.0,31,0.00,,SKC,0.00,VWS V14.01,2013-01-23 17:15:00,
2013-01-23 12:17:00,18.0,-8.2,30.19,South,176,14.0,20.0,30,0.00,,SKC,0.00,VWS V14.01,2013-01-23 17:17:00,
2013-01-23 12:23:00,17.8,-7.7,30.19,SSW,195,2.0,22.0,31,0.00,,SKC,0.00,VWS V14.01,2013-01-23 17:23:00,
2013-01-23 12:29:00,18.0,-6.9,30.19,South,176,5.0,24.0,32,0.00,,SKC,0.00,VWS V14.01,2013-01-23 17:29:00,
2013-01-23 12:30:00,18.1,-6.8,30.19,South,171,4.0,24.0,32,0.00,,SKC,0.00,VWS V14.01,2013-01-23 17:30:00,
2013-01-23 12:35:00,18.4,-6.5,30.19,SSW,206,2.0,20.0,32,0.00,,SKC,0.00,VWS V14.01,2013-01-23 17:35:00,
2013-01-23 12:41:00,18.6,-7.0,30.19,SSW,206,6.0,20.0,31,0.00,,SKC,0.00,VWS V14.01,2013-01-23 17:41:00,
2013-01-23 12:45:00,18.8,-6.2,30.17,SSW,202,3.0,20.0,32,0.00,,SKC,0.00,VWS V14.01,2013-01-23 17:45:00,
2013-01-23 12:47:00,18.6,-5.7,30.17,South,174,11.0,23.0,33,0.00,,SKC,0.00,VWS V14.01,2013-01-23 17:47:00,
2013-01-23 12:53:00,18.6,-6.3,30.17,SW,223,3.0,25.0,32,0.00,,SKC,0.00,VWS V14.01,2013-01-23 17:53:00,
2013-01-23 12:59:00,18.6,-5.7,30.17,SW,225,4.0,25.0,33,0.00,,SKC,0.00,VWS V14.01,2013-01-23 17:59:00,
2013-01-23 13:00:00,18.6,-5.1,30.17,SSE,162,7.0,25.0,34,0.00,,SKC,0.00,VWS V14.01,2013-01-23 18:00:00,
2013-01-23 13:05:00,18.6,-5.1,30.17,SSE,161,9.0,16.0,34,0.00,,SKC,0.00,VWS V14.01,2013-01-23 18:05:00,
2013-01-23 13:11:00,18.4,-6.5,30.17,SE,146,11.0,25.0,32,0.00,,SKC,0.00,VWS V14.01,2013-01-23 18:11:00,
2013-01-23 13:15:00,18.4,-4.7,30.16,SSW,201,11.0,25.0,35,0.00,,SKC,0.00,VWS V14.01,2013-01-23 18:15:00,
2013-01-23 13:17:00,18.4,-4.7,30.16,SW,227,2.0,13.0,35,0.00,,SKC,0.00,VWS V14.01,2013-01-23 18:17:00,
2013-01-23 13:23:00,18.6,-4.5,30.16,SW,226,10.0,20.0,35,0.00,,SKC,0.00,VWS V14.01,2013-01-23 18:23:00,
2013-01-23 13:29:00,18.4,-4.1,30.16,SW,219,12.0,21.0,36,0.00,,SKC,0.00,VWS V14.01,2013-01-23 18:29:00,
2013-01-23 13:30:00,18.4,-3.5,30.16,SSW,207,0.0,21.0,37,0.00,,SKC,0.00,VWS V14.01,2013-01-23 18:30:00,
2013-01-23 13:35:00,18.8,-2.0,30.16,SSE,162,2.0,18.0,39,0.00,,SKC,0.00,VWS V14.01,2013-01-23 18:35:00,
2013-01-23 13:41:00,19.2,-1.1,30.16,SW,232,10.0,19.0,40,0.00,,SKC,0.00,VWS V14.01,2013-01-23 18:41:00,
2013-01-23 13:45:00,19.4,-1.5,30.15,South,169,0.0,19.0,39,0.00,,SKC,0.00,VWS V14.01,2013-01-23 18:45:00,
2013-01-23 13:47:00,19.5,-1.4,30.15,SSW,192,4.0,15.0,39,0.00,,SKC,0.00,VWS V14.01,2013-01-23 18:47:00,
2013-01-23 13:53:00,19.7,-0.7,30.15,SW,221,2.0,15.0,40,0.00,,SKC,0.00,VWS V14.01,2013-01-23 18:53:00,
2013-01-23 13:59:00,19.7,-0.2,30.14,South,190,13.0,21.0,41,0.00,,SKC,0.00,VWS V14.01,2013-01-23 18:59:00,
2013-01-23 14:00:00,19.7,-0.2,30.14,South,183,6.0,21.0,41,0.00,,SKC,0.00,VWS V14.01,2013-01-23 19:00:00,
2013-01-23 14:05:00,19.9,1.0,30.14,SW,220,3.0,19.0,43,0.00,,SKC,0.00,VWS V14.01,2013-01-23 19:05:00,
2013-01-23 14:11:00,20.0,1.6,30.14,South,176,4.0,20.0,44,0.00,,SKC,0.00,VWS V14.01,2013-01-23 19:11:00,
2013-01-23 14:15:00,20.0,2.1,30.13,SW,215,2.0,20.0,45,0.00,,SKC,0.00,VWS V14.01,2013-01-23 19:15:00,
2013-01-23 14:17:00,20.2,2.7,30.13,SSW,199,8.0,9.0,46,0.00,,SKC,0.00,VWS V14.01,2013-01-23 19:17:00,
2013-01-23 14:23:00,21.1,3.1,30.13,SSW,207,6.0,12.0,45,0.00,,SKC,0.00,VWS V14.01,2013-01-23 19:23:00,
2013-01-23 14:29:00,21.6,4.0,30.12,South,190,6.0,13.0,46,0.00,,SKC,0.00,VWS V14.01,2013-01-23 19:29:00,
2013-01-23 14:30:00,21.6,4.0,30.12,SSW,195,3.0,13.0,46,0.00,,SKC,0.00,VWS V14.01,2013-01-23 19:30:00,
2013-01-23 14:35:00,20.8,4.2,30.12,SW,224,5.0,16.0,48,0.00,,SKC,0.00,VWS V14.01,2013-01-23 19:35:00,
2013-01-23 14:41:00,20.3,3.8,30.12,SW,236,7.0,22.0,48,0.00,,SKC,0.00,VWS V14.01,2013-01-23 19:41:00,
2013-01-23 14:45:00,20.2,4.6,30.12,SSW,212,2.0,22.0,50,0.00,,SKC,0.00,VWS V14.01,2013-01-23 19:45:00,
2013-01-23 14:47:00,20.3,5.1,30.12,SW,219,7.0,11.0,51,0.00,,SKC,0.00,VWS V14.01,2013-01-23 19:47:00,
2013-01-23 14:54:00,20.3,5.5,30.12,SW,235,4.0,18.0,52,0.00,,SKC,0.00,VWS V14.01,2013-01-23 19:54:00,
2013-01-23 15:00:00,20.6,6.2,30.11,SSW,198,2.0,21.0,53,0.00,,SKC,0.00,VWS V14.01,2013-01-23 20:00:00,
2013-01-23 15:06:00,20.5,6.5,30.11,SW,214,5.0,23.0,54,0.00,,SKC,0.00,VWS V14.01,2013-01-23 20:06:00,
2013-01-23 15:12:00,20.6,7.4,30.11,WSW,252,12.0,23.0,56,0.00,,SKC,0.00,VWS V14.01,2013-01-23 20:12:00,
2013-01-23 15:15:00,20.6,7.4,30.13,West,270,4.0,23.0,56,0.00,,SKC,0.00,VWS V14.01,2013-01-23 20:15:00,
2013-01-23 15:18:00,20.6,7.8,30.13,SW,232,7.0,20.0,57,0.00,,SKC,0.00,VWS V14.01,2013-01-23 20:18:00,
2013-01-23 15:24:00,20.6,8.2,30.13,SW,236,11.0,23.0,58,0.00,,SKC,0.00,VWS V14.01,2013-01-23 20:24:00,
2013-01-23 15:30:00,20.5,8.1,30.13,SSW,201,24.0,24.0,58,0.00,,SKC,0.00,VWS V14.01,2013-01-23 20:30:00,
2013-01-23 15:36:00,20.5,8.5,30.13,SSW,193,14.0,16.0,59,0.00,,SKC,0.00,VWS V14.01,2013-01-23 20:36:00,
2013-01-23 15:42:00,20.3,8.3,30.13,South,170,0.0,27.0,59,0.00,,SKC,0.00,VWS V14.01,2013-01-23 20:42:00,
2013-01-23 15:45:00,20.3,8.6,30.13,South,191,24.0,27.0,60,0.00,,SKC,0.00,VWS V14.01,2013-01-23 20:45:00,
2013-01-23 15:48:00,20.3,9.0,30.13,SW,234,4.0,24.0,61,0.00,,SKC,0.00,VWS V14.01,2013-01-23 20:48:00,
2013-01-23 15:54:00,20.3,9.0,30.13,SW,221,4.0,24.0,61,0.00,,SKC,0.00,VWS V14.01,2013-01-23 20:54:00,
2013-01-23 16:00:00,20.2,9.3,30.13,SW,218,5.0,24.0,62,0.00,,SKC,0.00,VWS V14.01,2013-01-23 21:00:00,
2013-01-23 16:06:00,20.2,9.3,30.13,WNW,298,0.0,19.0,62,0.00,,SKC,0.00,VWS V14.01,2013-01-23 21:06:00,
2013-01-23 16:12:00,20.2,9.6,30.13,SSW,206,0.0,19.0,63,0.00,,SKC,0.00,VWS V14.01,2013-01-23 21:12:00,
2013-01-23 16:15:00,20.2,9.6,30.13,SSW,208,6.0,19.0,63,0.00,,SKC,0.00,VWS V14.01,2013-01-23 21:15:00,
2013-01-23 16:18:00,20.2,9.6,30.13,South,184,3.0,15.0,63,0.00,,SKC,0.00,VWS V14.01,2013-01-23 21:18:00,
2013-01-23 16:24:00,20.2,9.6,30.13,South,189,2.0,21.0,63,0.00,,SKC,0.00,VWS V14.01,2013-01-23 21:24:00,
2013-01-23 16:30:00,20.2,10.0,30.13,SW,214,4.0,21.0,64,0.00,,SKC,0.00,VWS V14.01,2013-01-23 21:30:00,
2013-01-23 16:36:00,20.2,10.0,30.13,SSW,199,7.0,16.0,64,0.00,,SKC,0.00,VWS V14.01,2013-01-23 21:36:00,
2013-01-23 16:42:00,20.2,10.3,30.13,SSE,166,10.0,21.0,65,0.00,,SKC,0.00,VWS V14.01,2013-01-23 21:42:00,
2013-01-23 16:45:00,20.2,10.3,30.12,SSW,202,11.0,21.0,65,0.00,,SKC,0.00,VWS V14.01,2013-01-23 21:45:00,
2013-01-23 16:48:00,20.2,10.3,30.12,SSW,202,10.0,21.0,65,0.00,,SKC,0.00,VWS V14.01,2013-01-23 21:48:00,
2013-01-23 16:54:00,20.2,10.3,30.12,SSW,209,9.0,21.0,65,0.00,,SKC,0.00,VWS V14.01,2013-01-23 21:54:00,
2013-01-23 17:00:00,20.2,10.3,30.13,SSW,202,8.0,21.0,65,0.00,,SKC,0.00,VWS V14.01,2013-01-23 22:00:00,
2013-01-23 17:15:00,20.3,10.4,30.12,SSW,202,6.0,16.0,65,0.00,,SKC,0.00,VWS V14.01,2013-01-23 22:15:00,
2013-01-23 17:30:00,20.5,10.6,30.11,SSW,202,7.0,17.0,65,0.00,,SKC,0.00,VWS V14.01,2013-01-23 22:30:00,
2013-01-23 17:45:00,20.5,11.0,30.11,SW,225,4.0,12.0,66,0.00,,SKC,0.00,VWS V14.01,2013-01-23 22:45:00,
2013-01-23 18:00:00,20.6,11.1,30.11,SW,225,4.0,11.0,66,0.00,,SKC,0.00,VWS V14.01,2013-01-23 23:00:00,
2013-01-23 18:15:00,20.8,11.2,30.11,SSW,202,4.0,13.0,66,0.00,,SKC,0.00,VWS V14.01,2013-01-23 23:15:00,
2013-01-23 18:30:00,21.4,11.1,30.10,SSW,202,5.0,15.0,64,0.00,,SKC,0.00,VWS V14.01,2013-01-23 23:30:00,
2013-01-23 18:45:00,22.1,11.4,30.10,SSW,202,6.0,15.0,63,0.00,,SKC,0.00,VWS V14.01,2013-01-23 23:45:00,
2013-01-23 19:00:00,22.7,11.6,30.09,SW,225,4.0,17.0,62,0.00,,SKC,0.00,VWS V14.01,2013-01-24 00:00:00,
2013-01-23 19:15:00,23.5,12.0,30.08,SSW,202,6.0,20.0,61,0.00,,SKC,0.00,VWS V14.01,2013-01-24 00:15:00,
2013-01-23 19:30:00,24.2,13.1,30.08,SSW,202,6.0,19.0,62,0.00,,SKC,0.00,VWS V14.01,2013-01-24 00:30:00,
2013-01-23 19:45:00,25.1,13.9,30.06,SSW,202,8.0,26.0,62,0.00,,SKC,0.00,VWS V14.01,2013-01-24 00:45:00,
2013-01-23 20:00:00,25.6,14.4,30.05,South,180,11.0,29.0,62,0.00,,SKC,0.00,VWS V14.01,2013-01-24 01:00:00,
2013-01-23 20:15:00,25.6,14.8,30.04,SSW,202,10.0,27.0,63,0.00,,SKC,0.00,VWS V14.01,2013-01-24 01:15:00,
2013-01-23 20:30:00,25.7,14.9,30.04,SSW,202,12.0,33.0,63,0.00,,SKC,0.00,VWS V14.01,2013-01-24 01:30:00,
2013-01-23 20:45:00,25.7,15.2,30.04,SSW,202,12.0,32.0,64,0.00,,SKC,0.00,VWS V14.01,2013-01-24 01:45:00,
2013-01-23 21:00:00,26.0,15.1,30.03,SSW,202,11.0,27.0,63,0.00,,SKC,0.00,VWS V14.01,2013-01-24 02:00:00,
2013-01-23 21:15:00,26.3,15.4,30.00,SSW,202,9.0,22.0,63,0.00,,SKC,0.00,VWS V14.01,2013-01-24 02:15:00,
2013-01-23 21:30:00,27.2,15.6,30.00,SSW,202,11.0,25.0,61,0.00,,SKC,0.00,VWS V14.01,2013-01-24 02:30:00,
2013-01-23 21:45:00,27.5,15.8,29.99,SSW,202,11.0,34.0,61,0.00,,SKC,0.00,VWS V14.01,2013-01-24 02:45:00,
2013-01-23 22:00:00,27.3,15.3,30.00,SSW,202,10.0,30.0,60,0.00,,SKC,0.00,VWS V14.01,2013-01-24 03:00:00,
2013-01-23 22:15:00,27.2,15.9,29.98,SSW,202,10.0,25.0,62,0.00,,SKC,0.00,VWS V14.01,2013-01-24 03:15:00,
2013-01-23 22:30:00,26.9,16.0,29.97,SSW,202,11.0,32.0,63,0.00,,SKC,0.00,VWS V14.01,2013-01-24 03:30:00,
2013-01-23 22:45:00,26.7,15.8,29.97,SSW,202,11.0,31.0,63,0.00,,SKC,0.00,VWS V14.01,2013-01-24 03:45:00,
2013-01-23 23:00:00,26.9,16.0,29.96,SSW,202,12.0,26.0,63,0.00,,SKC,0.00,VWS V14.01,2013-01-24 04:00:00,
2013-01-23 23:15:00,27.0,16.1,29.94,SSW,202,13.0,25.0,63,0.00,,SKC,0.00,VWS V14.01,2013-01-24 04:15:00,
2013-01-23 23:30:00,27.0,16.1,29.94,SSW,202,11.0,26.0,63,0.00,,SKC,0.00,VWS V14.01,2013-01-24 04:30:00,
2013-01-23 23:45:00,27.6,16.7,29.92,SSW,202,13.0,29.0,63,0.00,,SKC,0.00,VWS V14.01,2013-01-24 04:45:00,